Weather Roundup
Issued by NWS

Home | Current Version | Previous Version | Graphics & Text | Print | Product List | Glossary Off
Versions: 1 2 3 4 5 6 7 8 9 10 11 12 13 14 15 16 17 18 19 20 21 22 23 24 25 26 27 28 29 30 31 32 33 34 35 36 37 38 39 40 41 42 43 44 45 46 47 48 49 50

000
NZUS93 KARX 291459
HRRWXR

CURRENT HOURLY OBSERVATIONS ACROSS
MUCH OF THE UPPER MISSISSIPPI VALLEY
NATIONAL WEATHER SERVICE LA CROSSE WI
1000 AM CDT FRI MAY 29 2015


...SOUTHEAST MINNESOTA...


CITY           SKY/WX    TMP DP  RH WIND       PRES   REMARKS
ROCHESTER      CLOUDY    69  63  81 S10       29.93F
ROCHESTER/MAYO CLOUDY    67  65  94 S6        29.92F
WINONA         CLOUDY    72  63  73 SW6       29.92F
AUSTIN         CLOUDY    66  63  88 S5        29.92F
ALBERT LEA     CLOUDY    68  64  88 S7        29.90F
DODGE CENTER   CLOUDY    68  63  83 S8        29.90F
PRESTON        CLOUDY    67  62  83 SW5       29.95S
OWATONNA       CLOUDY    66  63  88 S5        29.89F
FARIBAULT      CLOUDY    66  63  88 S6        29.89R
$$

...ELSEWHERE IN MINNESOTA...


CITY           SKY/WX    TMP DP  RH WIND       PRES   REMARKS
MINNEAPOLIS    CLOUDY    69  65  86 W6        29.88R
INTNL FALLS    CLOUDY    53  49  86 NW13      29.95R
DULUTH         PTSUNNY   63  57  81 W7        29.87S
RED WING       DRIZZLE   70  64  83 SW5       29.88F
REDWOOD FALLS  LGT RAIN  65  61  87 N6        29.90R
MANKATO        CLOUDY    64  61  88 S10       29.89R
WORTHINGTON    CLOUDY    64  61  88 S7        29.92S
FAIRMONT       CLOUDY    66  61  82 S13G20    29.90S
$$

...SOUTHWEST WISCONSIN...


CITY           SKY/WX    TMP DP  RH WIND       PRES   REMARKS
LA CROSSE      PTSUNNY   73  61  65 S9        29.93F
PRAIRIE DU CHI CLOUDY    70  63  79 SE3       29.96F
BOSCOBEL       CLOUDY    73  64  73 VRB5      29.97F
LONE ROCK      NOT AVBL
PLATTEVILLE    CLOUDY    68  65  88 SE8       29.99S
FORT MC COY    PTSUNNY   69  60  73 S10       29.97R
VIROQUA        FAIR      67  64  90 S9        29.97F
WIS DELLS      CLOUDY    68  63  85 SW9       29.98R
$$

...ELSEWHERE IN WISCONSIN...


CITY           SKY/WX    TMP DP  RH WIND       PRES   REMARKS
MILWAUKEE      PTSUNNY   77  64  64 SW12      30.01F
MADISON        CLOUDY    71  62  73 S12       29.98F
GREEN BAY      LGT RAIN  67  61  81 S6        29.98S
EAU CLAIRE     NOT AVBL
BLACK RVR FLS  PTSUNNY   72  62  71 S7        29.94S
MEDFORD        CLOUDY    65  61  87 S14       29.94S
WAUSAU         CLOUDY    69  61  75 S13       29.94S
WIS RAPIDS     CLOUDY    68  61  78 SW14G20   29.98S
MARSHFIELD     CLOUDY    68  61  78 S10       29.95S
RICE LAKE      CLOUDY    64  61  89 S6        29.92R
$$

...NORTHEAST IOWA...


CITY           SKY/WX    TMP DP  RH WIND       PRES   REMARKS
DECORAH        CLOUDY    70  63  78 VRB7      29.95S
MASON CITY     CLOUDY    70  63  78 SW8       29.94S
CHARLES CITY   CLOUDY    72  66  83 SW9       29.94F
OELWEIN        CLOUDY    68  64  88 S10       29.97S
$$

...ELSEWHERE IN IOWA...


CITY           SKY/WX    TMP DP  RH WIND       PRES   REMARKS
DES MOINES     CLOUDY    70  63  78 SW8       29.95S
IOWA CITY      PTSUNNY   72  66  81 S5        29.96F
FORT DODGE     CLOUDY    66  63  88 SW9       29.95R
$$

...NORTHERN ILLINOIS...


CITY           SKY/WX    TMP DP  RH WIND       PRES   REMARKS
CHICAGO-OHARE  PTSUNNY   77  64  64 S15       30.03F
CHICAGO-MIDWAY PTSUNNY   80  65  59 SW15G22   30.03F
MOLINE         CLOUDY    70  67  90 S6        29.97F
ROCKFORD       LGT RAIN  75  65  70 S13       30.02S
PEORIA         CLOUDY    77  66  68 S14       30.01F
$$

NOTE: "FAIR" INDICATES FEW OR NO CLOUDS BELOW 12,000 FEET WITH NO
SIGNIFICANT WEATHER AND/OR OBSTRUCTIONS TO VISIBILITY. WIND
SPEEDS ARE IN MILES-PER-HOUR.



USA.gov is the U.S. government's official web portal to all federal, state and local government web resources and services.